Weather History for KOWD - October, 2011

Change the Weather History Date:

Tuesday, October 25, 2011

  Actual Average Record
Temperature  
Mean Temperature 50 °F -  
Max Temperature 62 °F 56 °F 77 °F (2001)
Min Temperature 39 °F 33 °F 19 °F (2003)
Degree Days  
Heating Degree Days 16    
Moisture  
Dew Point 38 °F    
Average Humidity 66    
Maximum Humidity 93    
Minimum Humidity 36    
Precipitation  
Precipitation 0.00 in - - ()
Sea Level Pressure  
Sea Level Pressure 29.91 in    
Wind  
Wind Speed 5 mph (WNW)    
Max Wind Speed 22 mph    
Max Gust Speed 30 mph    
Visibility 8 miles    
Events Fog , Rain    
Averages and records for this station are not official NWS values.
T = Trace of Precipitation, MM = Missing Value Source: NWS Daily Summary

Daily Weather History Graph

Daily Weather History Graph

Search for Another Location

Airport or City:

Trip Planner

Search our weather history database for the weather conditions in past years. The results will help you decide how hot, cold, wet, or windy it might be!

Date:

Astronomy

Oct. 25, 2011 Rise Set
Actual Time 7:08 AM EDT 5:48 PM EDT
Civil Twilight 6:40 AM EDT 6:16 PM EDT
Nautical Twilight 6:07 AM EDT 6:49 PM EDT
Astronomical Twilight 5:34 AM EDT 7:21 PM EDT
Moon 5:36 AM EDT (10/25) 4:47 PM EDT (10/25)
Length of Visible Light 11h 36m
Length of Day
10h 39m
Waning Crescent, 2% of the Moon is Illuminated
Oct 25
Waning Crescent
Oct 26
New
Nov 2
First Quarter
Nov 10
Full
Nov 18
Last Quarter

Hourly Weather History & Observations

Time (EDT) Temp. Windchill Dew Point Humidity Pressure Visibility Wind Dir Wind Speed Gust Speed Precip Events Conditions
12:53 AM 54.0 °F - 46.0 °F 75% 29.93 in 10.0 mi SW 4.6 mph - N/A   Overcast
1:16 AM 53.6 °F - 46.4 °F 77% 29.92 in 10.0 mi Calm Calm - 0.00 in Rain Light Rain
1:53 AM 52.0 °F - 46.9 °F 83% 29.91 in 10.0 mi Calm Calm - 0.00 in   Overcast
2:53 AM 52.0 °F - 46.9 °F 83% 29.90 in 9.0 mi WSW 4.6 mph - 0.00 in Rain Light Rain
4:53 AM 48.9 °F - 45.0 °F 86% 29.90 in 10.0 mi Calm Calm - N/A   Clear
5:20 AM 44.6 °F - 42.8 °F 93% 29.90 in 2.0 mi Calm Calm - N/A   Clear
5:25 AM 44.6 °F - 42.8 °F 93% 29.90 in 0.8 mi Calm Calm - N/A   Mist
5:53 AM 43.0 °F - 39.0 °F 86% 29.90 in 0.2 mi Calm Calm - N/A Fog Fog
6:29 AM 41.0 °F - 37.4 °F 87% 29.90 in 1.2 mi Calm Calm - N/A   Partly Cloudy
6:33 AM 41.0 °F 39.0 °F 39.2 °F 93% 29.90 in 3.0 mi WNW 3.5 mph - N/A   Partly Cloudy
6:53 AM 45.0 °F 43.5 °F 43.0 °F 93% 29.90 in 10.0 mi West 3.5 mph - N/A   Clear
7:53 AM 46.9 °F - 43.0 °F 86% 29.92 in 10.0 mi West 6.9 mph - N/A   Clear
8:53 AM 52.0 °F - 42.1 °F 69% 29.93 in 10.0 mi West 3.5 mph - N/A   Clear
9:53 AM 55.9 °F - 39.9 °F 55% 29.92 in 10.0 mi WNW 16.1 mph 20.7 mph N/A   Clear
10:53 AM 57.9 °F - 37.9 °F 47% 29.91 in 10.0 mi NW 12.7 mph 19.6 mph N/A   Clear
11:53 AM 57.0 °F - 36.0 °F 45% 29.90 in 10.0 mi WNW 16.1 mph 20.7 mph N/A   Mostly Cloudy
12:53 PM 60.1 °F - 35.1 °F 39% 29.86 in 10.0 mi West 15.0 mph 26.5 mph N/A   Scattered Clouds
1:53 PM 60.1 °F - 33.1 °F 36% 29.86 in 10.0 mi WNW 21.9 mph 29.9 mph N/A   Scattered Clouds
2:53 PM 60.1 °F - 33.1 °F 36% 29.86 in 10.0 mi WNW 11.5 mph 24.2 mph N/A   Partly Cloudy
3:53 PM 60.1 °F - 33.1 °F 36% 29.87 in 10.0 mi WNW 17.3 mph 23.0 mph N/A   Clear
4:53 PM 59.0 °F - 32.0 °F 36% 29.88 in 10.0 mi WNW 13.8 mph 18.4 mph N/A   Clear
5:53 PM 55.9 °F - 30.9 °F 39% 29.90 in 10.0 mi West 12.7 mph - N/A   Clear
6:53 PM 54.0 °F - 30.9 °F 41% 29.94 in 10.0 mi West 4.6 mph - N/A   Clear
7:53 PM 51.1 °F - 32.0 °F 48% 29.95 in 10.0 mi West 9.2 mph - N/A   Clear
9:53 PM 46.0 °F 43.9 °F 34.0 °F 63% 29.98 in 10.0 mi NW 4.6 mph - N/A   Clear
10:53 PM 39.9 °F - 34.0 °F 79% 29.98 in 10.0 mi Calm Calm - N/A   Clear
11:53 PM 39.9 °F - 36.0 °F 86% 29.99 in 10.0 mi Calm Calm - N/A   Clear